Weather History for PHJR - August, 2013

Change the Weather History Date:

Thursday, August 29, 2013

  Actual Average (PHNL) Record (PHNL)
Temperature  
Mean Temperature 78 °F 82 °F  
Max Temperature 86 °F 89 °F 92 °F (1979)
Min Temperature 71 °F 75 °F 68 °F (1974)
Degree Days  
Heating Degree Days 0 0  
Month to date heating degree days 0  
Since 1 June heating degree days 0  
Since 1 July heating degree days 0  
Cooling Degree Days 14 17  
Month to date cooling degree days 493  
Year to date cooling degree days 2953  
Since 1 June cooling degree days 1451  
Growing Degree Days 28 (Base 50)    
Moisture  
Dew Point 67 °F    
Average Humidity 68    
Maximum Humidity 90    
Minimum Humidity 49    
Precipitation  
Precipitation 0.05 in 0.02 in 0.14 in (1961)
Month to date precipitation 0.52  
Year to date precipitation 8.86  
Snow  
Snow 0.00 in - - ()
Month to date snowfall  
Since 1 June snowfall  
Since 1 July snowfall  
Snow Depth -    
Sea Level Pressure  
Sea Level Pressure 29.96 in    
Wind  
Wind Speed 3 mph (East)    
Max Wind Speed 13 mph    
Max Gust Speed 22 mph    
Visibility 10 miles    
Events Rain    
T = Trace of Precipitation, MM = Missing Value Source: NWS Daily Summary

Daily Weather History Graph

Daily Weather History Graph

Search for Another Location

Airport or City:

Trip Planner

Search our weather history database for the weather conditions in past years. The results will help you decide how hot, cold, wet, or windy it might be!

Date:

Astronomy

Aug. 29, 2013 Rise Set
Actual Time 6:15 AM HST 6:50 PM HST
Civil Twilight 5:52 AM HST 7:13 PM HST
Nautical Twilight 5:25 AM HST 7:39 PM HST
Astronomical Twilight 4:59 AM HST 8:06 PM HST
Moon 12:37 AM HST 2:06 PM HST
Length of Visible Light 13h 20m
Length of Day
12h 35m
Waning Crescent, 36% of the Moon is Illuminated
Aug 29
Waning Crescent
Sep 5
New
Sep 12
First Quarter
Sep 19
Full
Sep 26
Last Quarter

Hourly Weather History & Observations

Time (HST) Temp. Heat Index Dew Point Humidity Pressure Visibility Wind Dir Wind Speed Gust Speed Precip Events Conditions
12:53 AM 72.0 °F - 66.0 °F 81% 29.97 in 10.0 mi Calm Calm - N/A   Clear
1:53 AM 72.0 °F - 66.0 °F 81% 29.96 in 10.0 mi Calm Calm - N/A   Clear
2:53 AM 71.1 °F - 64.9 °F 81% 29.95 in 10.0 mi Calm Calm - N/A   Partly Cloudy
3:53 AM 73.0 °F - 70.0 °F 90% 29.96 in 10.0 mi Calm Calm - 0.01 in Rain Light Rain
4:53 AM - - - N/A% 29.96 in 10.0 mi Calm Calm - 0.04 in   Overcast
5:53 AM - - - N/A% 29.96 in 10.0 mi NNE 3.5 mph - N/A   Overcast
6:53 AM - - - N/A% 29.98 in 10.0 mi ENE 3.5 mph - N/A   Clear
7:53 AM - - - N/A% 29.99 in 10.0 mi North 4.6 mph - N/A   Mostly Cloudy
8:53 AM 80.1 °F 82.9 °F 69.1 °F 69% 29.99 in 10.0 mi ENE 5.8 mph - N/A   Overcast
9:53 AM 82.0 °F 84.9 °F 68.0 °F 62% 29.98 in 10.0 mi ESE 6.9 mph - N/A   Scattered Clouds
10:53 AM 82.9 °F 85.4 °F 66.9 °F 58% 29.97 in 10.0 mi SE 10.4 mph - N/A   Scattered Clouds
11:53 AM 82.9 °F 86.5 °F 69.1 °F 63% 29.96 in 10.0 mi SE 12.7 mph - N/A   Mostly Cloudy
12:53 PM 84.9 °F 88.8 °F 69.1 °F 59% 29.94 in 10.0 mi SE 12.7 mph 18.4 mph N/A   Partly Cloudy
1:53 PM 84.9 °F 89.4 °F 70.0 °F 61% 29.92 in 10.0 mi SE 12.7 mph 21.9 mph N/A   Mostly Cloudy
2:53 PM 84.9 °F 88.2 °F 68.0 °F 57% 29.91 in 10.0 mi SE 12.7 mph 20.7 mph N/A   Scattered Clouds
3:53 PM 86.0 °F 88.8 °F 66.9 °F 53% 29.91 in 10.0 mi ESE 6.9 mph 19.6 mph N/A   Scattered Clouds
4:53 PM 84.9 °F 86.1 °F 64.0 °F 49% 29.91 in 10.0 mi Variable 5.8 mph - N/A   Partly Cloudy
5:53 PM 82.0 °F 83.4 °F 64.0 °F 54% 29.93 in 10.0 mi ENE 6.9 mph - N/A   Clear
6:53 PM 79.0 °F - 64.0 °F 60% 29.96 in 10.0 mi ENE 5.8 mph - N/A   Clear
7:33 PM 77.0 °F - 64.4 °F 65% 29.95 in 10.0 mi Variable 3.5 mph - N/A   Partly Cloudy
7:53 PM 75.9 °F - 66.0 °F 71% 29.98 in 10.0 mi Calm Calm - N/A   Clear
8:53 PM 75.0 °F - 66.0 °F 73% 30.00 in 10.0 mi Calm Calm - N/A   Clear
9:53 PM 73.0 °F - 66.0 °F 79% 30.01 in 10.0 mi ENE 3.5 mph - N/A   Clear
10:53 PM 73.0 °F - 66.0 °F 79% 30.01 in 10.0 mi Calm Calm - N/A   Partly Cloudy
11:53 PM 73.0 °F - 66.0 °F 79% 30.00 in 10.0 mi Calm Calm - N/A   Clear